Location: Unspecified
(51.0950°N, 12.9690°E)
Time: 03:25:05
(UTC+00:00)

PCSat - Visible Passes

Search period start: 18 April 2024 00:00
Search period end: 28 April 2024 00:00
Orbit: 783 x 792 km, 67.0° (Epoch: 17 April)

Date Brightness Start Highest point End Pass type
(mag) Time Alt. Az. Time Alt. Az. Time Alt. Az.
18 Apr 12.2 01:21:24 10° NNW 01:25:28 21° NNE 01:29:31 10° ENE visible
18 Apr 10.3 03:04:33 10° NNW 03:09:56 59° NE 03:15:17 10° SE visible
18 Apr 9.5 19:33:27 10° SSW 19:38:51 84° SE 19:44:19 10° NE visible
18 Apr 11.6 21:18:13 10° W 21:22:51 28° NNW 21:27:30 10° NNE visible
18 Apr 12.5 23:04:55 10° NW 23:08:02 15° N 23:11:10 10° NNE visible
19 Apr 12.3 00:49:46 10° NNW 00:53:33 19° NNE 00:57:18 10° ENE visible
19 Apr 10.7 02:32:58 10° NNW 02:38:14 47° NE 02:43:27 10° ESE visible
19 Apr 9.6 19:01:56 10° SSW 19:07:17 65° ESE 19:12:40 10° NE visible
19 Apr 11.4 20:46:09 10° W 20:51:01 33° NW 20:55:56 10° NNE visible
19 Apr 12.5 22:32:45 10° NW 22:36:03 16° NNW 22:39:21 10° NNE visible
20 Apr 12.4 00:18:06 10° NNW 00:21:36 17° NNE 00:25:06 10° NE visible
20 Apr 11.1 02:01:24 10° NNW 02:06:29 38° NE 02:11:32 10° ESE visible
20 Apr 11.0 20:14:10 10° WSW 20:19:15 40° NW 20:24:22 10° NNE visible
20 Apr 12.4 22:00:33 10° WNW 22:04:05 17° NNW 22:07:38 10° NNE visible
20 Apr 12.5 23:46:22 10° NNW 23:49:38 16° N 23:52:54 10° NE visible
21 Apr 11.5 01:29:50 10° NNW 01:34:42 32° NE 01:39:32 10° E visible
21 Apr 9.6 03:13:04 10° NW 03:18:30 69° WSW 03:23:51 10° SSE visible
21 Apr 10.6 19:42:15 10° WSW 19:47:30 49° NW 19:52:47 10° NNE visible
21 Apr 12.3 21:28:20 10° WNW 21:32:09 19° NNW 21:35:58 10° NNE visible
21 Apr 12.6 23:14:33 10° NNW 23:17:39 15° N 23:20:45 10° NE visible
22 Apr 11.7 00:58:16 10° NNW 01:02:52 27° NNE 01:07:27 10° E visible
22 Apr 9.6 02:41:26 10° NW 02:46:54 88° SW 02:52:19 10° SE visible
22 Apr 10.2 19:10:26 10° SW 19:15:48 62° NW 19:21:12 10° NNE visible
22 Apr 12.2 20:56:07 10° WNW 21:00:13 21° NNW 21:04:21 10° NNE visible
22 Apr 12.6 22:42:38 10° NNW 22:45:39 15° N 22:48:40 10° NE visible
23 Apr 12.0 00:26:40 10° NNW 00:31:00 23° NNE 00:35:18 10° E visible
23 Apr 9.8 02:09:49 10° NW 02:15:16 73° NE 02:20:41 10° SE visible
23 Apr 12.0 20:23:56 10° W 20:28:20 24° NNW 20:32:44 10° NNE visible
23 Apr 12.6 22:10:37 10° NW 22:13:39 15° N 22:16:41 10° NNE visible
23 Apr 12.1 23:55:04 10° NNW 23:59:05 21° NNE 00:03:07 10° ENE visible
24 Apr 10.2 01:38:12 10° NNW 01:43:35 58° NE 01:48:55 10° SE visible
24 Apr 11.8 19:51:49 10° W 19:56:28 28° NNW 20:01:09 10° NNE visible
24 Apr 12.5 21:38:31 10° NW 21:41:39 15° N 21:44:47 10° NNE visible
24 Apr 12.3 23:23:25 10° NNW 23:27:10 18° NNE 23:30:54 10° ENE visible
25 Apr 10.7 01:06:38 10° NNW 01:11:52 46° NE 01:17:04 10° ESE visible
25 Apr 10.0 02:50:09 10° NW 02:55:12 41° WSW 03:00:13 10° S visible
25 Apr 11.5 19:19:45 10° WSW 19:24:39 33° NW 19:29:34 10° NNE visible
25 Apr 12.5 21:06:20 10° NW 21:09:40 16° NNW 21:12:59 10° NNE visible
25 Apr 12.4 22:51:44 10° NNW 22:55:13 17° NNE 22:58:41 10° NE visible
26 Apr 11.0 00:35:03 10° NNW 00:40:06 38° NE 00:45:08 10° ESE visible
26 Apr 9.7 02:18:24 10° NW 02:23:41 54° WSW 02:28:56 10° SSE visible
26 Apr 11.2 18:47:46 10° WSW 18:52:52 40° NW 18:58:00 10° NNE visible
26 Apr 12.4 20:34:07 10° WNW 20:37:41 17° NNW 20:41:16 10° NNE visible
26 Apr 12.4 22:19:58 10° NNW 22:23:14 16° N 22:26:28 10° NE visible
27 Apr 11.4 00:03:28 10° NNW 00:08:18 31° NE 00:13:07 10° E visible
27 Apr 9.5 01:46:42 10° NW 01:52:07 71° WSW 01:57:30 10° SSE visible
27 Apr 12.3 20:01:53 10° WNW 20:05:44 19° NNW 20:09:35 10° NNE visible
27 Apr 12.4 21:48:09 10° NNW 21:51:13 15° N 21:54:19 10° NE visible
27 Apr 11.6 23:31:53 10° NNW 23:36:28 27° NNE 23:41:01 10° E visible
